| time (UTC) | temp F | wind direction | speed MPH | gust MPH | rain 1hr in | rain 24hr in | rain mn in | humidity % | barometer mb |
| 20260506003012 | 49 | 352 | 0.0 | 2.0 | 0.11 | 0.80 | 0.76 | 92 | 1009.5 |
| 20260506001515 | 49 | 352 | 0.0 | 3.0 | 0.09 | 0.76 | 0.72 | 92 | 1009.3 |
| 20260506000010 | 50 | 113 | 0.0 | 0.0 | 0.08 | 0.74 | 0.70 | 92 | 1009.2 |
| 20260505234517 | 50 | 113 | 0.0 | 0.0 | 0.09 | 0.71 | 0.67 | 92 | 1009.2 |
| 20260505233027 | 50 | 113 | 0.0 | 1.0 | 0.09 | 0.69 | 0.65 | 91 | 1008.8 |
| 20260505231525 | 50 | 113 | 1.0 | 4.0 | 0.10 | 0.67 | 0.63 | 91 | 1008.5 |
| 20260505230025 | 50 | 53 | 1.0 | 4.0 | 0.13 | 0.66 | 0.62 | 91 | 1008.9 |
| 20260505224520 | 50 | 25 | 3.0 | 6.0 | 0.13 | 0.62 | 0.58 | 91 | 1008.9 |
| 20260505223026 | 51 | 57 | 1.0 | 4.0 | 0.17 | 0.60 | 0.56 | 92 | 1008.9 |
| 20260505221512 | 51 | 13 | 2.0 | 10.0 | 0.18 | 0.57 | 0.52 | 92 | 1008.8 |
| 20260505220025 | 52 | 12 | 3.0 | 8.0 | 0.20 | 0.52 | 0.49 | 91 | 1008.9 |
| 20260505214531 | 53 | 322 | 1.0 | 8.0 | 0.20 | 0.49 | 0.45 | 91 | 1008.6 |
| 20260505213024 | 53 | 259 | 1.0 | 9.0 | 0.16 | 0.43 | 0.39 | 91 | 1008.1 |
| 20260505211525 | 53 | 335 | 2.0 | 11.0 | 0.13 | 0.39 | 0.35 | 90 | 1008.1 |
| 20260505210021 | 54 | 323 | 5.0 | 13.0 | 0.07 | 0.33 | 0.29 | 89 | 1007.8 |
| 20260505204517 | 54 | 281 | 2.0 | 13.0 | 0.03 | 0.29 | 0.25 | 88 | 1007.4 |
| 20260505203026 | 55 | 248 | 4.0 | 10.0 | 0.01 | 0.27 | 0.23 | 86 | 1007.0 |
| 20260505201528 | 56 | 294 | 1.0 | 13.0 | 0.00 | 0.26 | 0.22 | 84 | 1007.2 |
| 20260505200008 | 57 | 289 | 4.0 | 11.0 | 0.00 | 0.26 | 0.22 | 80 | 1007.3 |
| 20260505194510 | 57 | 323 | 2.0 | 9.0 | 0.00 | 0.26 | 0.22 | 78 | 1007.1 |
| 20260505193012 | 58 | 314 | 2.0 | 11.0 | 0.00 | 0.26 | 0.22 | 76 | 1006.8 |
| 20260505191517 | 59 | 267 | 1.0 | 12.0 | 0.00 | 0.26 | 0.22 | 77 | 1006.7 |
| 20260505190019 | 58 | 261 | 5.0 | 16.0 | 0.00 | 0.26 | 0.22 | 75 | 1007.0 |
| 20260505184514 | 61 | 272 | 5.0 | 13.0 | 0.00 | 0.26 | 0.22 | 71 | 1006.9 |
| 20260505183012 | 62 | 254 | 5.0 | 14.0 | 0.00 | 0.26 | 0.22 | 70 | 1006.5 |
| 20260505181508 | 62 | 303 | 5.0 | 16.0 | 0.00 | 0.26 | 0.22 | 70 | 1006.4 |
| 20260505180015 | 62 | 266 | 5.0 | 16.0 | 0.00 | 0.26 | 0.22 | 70 | 1006.2 |
| 20260505174512 | 63 | 262 | 4.0 | 18.0 | 0.00 | 0.26 | 0.22 | 69 | 1006.0 |
| 20260505173024 | 63 | 333 | 6.0 | 17.0 | 0.00 | 0.26 | 0.22 | 70 | 1006.1 |
| 20260505171511 | 59 | 300 | 2.0 | 14.0 | 0.00 | 0.26 | 0.22 | 75 | 1006.1 |
| 20260505170018 | 58 | 304 | 7.0 | 17.0 | 0.00 | 0.26 | 0.22 | 72 | 1006.2 |
| 20260505164514 | 60 | 325 | 5.0 | 15.0 | 0.00 | 0.26 | 0.22 | 70 | 1005.9 |
| 20260505163016 | 61 | 284 | 7.0 | 16.0 | 0.00 | 0.26 | 0.22 | 69 | 1005.4 |
| 20260505161517 | 59 | 254 | 5.0 | 14.0 | 0.00 | 0.26 | 0.22 | 72 | 1005.4 |
| 20260505153014 | 60 | 337 | 7.0 | 17.0 | 0.00 | 0.26 | 0.22 | 69 | 1005.3 |
| 20260505151511 | 60 | 352 | 5.0 | 16.0 | 0.00 | 0.26 | 0.22 | 69 | 1004.7 |
| 20260505124532 | 67 | 259 | 4.0 | 12.0 | 0.00 | 0.26 | 0.22 | 61 | 1002.9 |
| 20260505123031 | 67 | 191 | 6.0 | 15.0 | 0.00 | 0.26 | 0.22 | 61 | 1002.8 |
| 20260505121534 | 67 | 292 | 5.0 | 14.0 | 0.00 | 0.26 | 0.22 | 62 | 1002.7 |
| 20260505120037 | 66 | 260 | 7.0 | 16.0 | 0.00 | 0.26 | 0.22 | 62 | 1002.4 |
| 20260505114521 | 66 | 258 | 5.0 | 11.0 | 0.00 | 0.26 | 0.22 | 62 | 1002.3 |
| 20260505113015 | 66 | 284 | 7.0 | 13.0 | 0.00 | 0.26 | 0.22 | 63 | 1002.3 |
| 20260505111528 | 65 | 276 | 3.0 | 13.0 | 0.00 | 0.26 | 0.22 | 66 | 1002.1 |
| 20260505101504 | 63 | 260 | 7.0 | 14.0 | 0.00 | 0.26 | 0.22 | 70 | 1001.4 |
| 20260505100014 | 62 | 273 | 5.0 | 15.0 | 0.00 | 0.26 | 0.22 | 72 | 1001.5 |
| 20260505094521 | 61 | 297 | 5.0 | 9.0 | 0.00 | 0.26 | 0.22 | 75 | 1001.4 |
| 20260505093013 | 60 | 285 | 5.0 | 10.0 | 0.00 | 0.26 | 0.22 | 77 | 1001.4 |
| 20260505091511 | 60 | 254 | 3.0 | 8.0 | 0.00 | 0.26 | 0.22 | 79 | 1001.3 |
| 20260505090017 | 59 | 248 | 1.0 | 10.0 | 0.00 | 0.26 | 0.22 | 82 | 1001.3 |
| 20260505084511 | 58 | 227 | 3.0 | 7.0 | 0.00 | 0.26 | 0.22 | 84 | 1001.3 |
| 20260505083013 | 57 | 244 | 1.0 | 3.0 | 0.00 | 0.26 | 0.22 | 90 | 1001.4 |
| 20260505081527 | 54 | 296 | 0.0 | 4.0 | 0.00 | 0.26 | 0.22 | 94 | 1001.6 |
| 20260505080015 | 53 | 20 | 0.0 | 0.0 | 0.00 | 0.26 | 0.22 | 93 | 1001.8 |
| 20260505074515 | 52 | 20 | 0.0 | 0.0 | 0.00 | 0.26 | 0.22 | 92 | 1001.9 |
| 20260505073012 | 53 | 20 | 0.0 | 0.0 | 0.00 | 0.26 | 0.22 | 92 | 1001.9 |
| 20260505071526 | 54 | 20 | 0.0 | 0.0 | 0.02 | 0.26 | 0.22 | 92 | 1002.1 |
| 20260505070009 | 54 | 20 | 0.0 | 2.0 | 0.02 | 0.26 | 0.22 | 92 | 1002.5 |
| 20260505064515 | 54 | 20 | 0.0 | 2.0 | 0.17 | 0.26 | 0.22 | 91 | 1002.9 |
| 20260505063017 | 55 | 280 | 0.0 | 2.0 | 0.21 | 0.26 | 0.22 | 90 | 1003.0 |
| 20260505061517 | 55 | 293 | 2.0 | 6.0 | 0.19 | 0.24 | 0.20 | 90 | 1003.3 |
| 20260505060033 | 56 | 243 | 0.0 | 7.0 | 0.19 | 0.24 | 0.20 | 89 | 1003.2 |
| 20260505054517 | 57 | 249 | 4.0 | 18.0 | 0.04 | 0.09 | 0.05 | 84 | 1004.0 |
| 20260505053010 | 59 | 275 | 4.0 | 23.0 | 0.00 | 0.05 | 0.01 | 78 | 1003.8 |
| 20260505051516 | 59 | 275 | 3.0 | 15.0 | 0.00 | 0.05 | 0.01 | 77 | 1003.2 |
| 20260505041522 | 60 | 252 | 3.0 | 8.0 | 0.04 | 0.05 | 0.01 | 78 | 1003.1 |
| 20260505040013 | 62 | 287 | 6.0 | 15.0 | 0.03 | 0.04 | 0.00 | 73 | 1003.2 |
| 20260505034512 | 63 | 250 | 4.0 | 9.0 | 0.00 | 0.01 | 0.01 | 65 | 1003.0 |
| 20260505033013 | 64 | 250 | 5.0 | 11.0 | 0.00 | 0.01 | 0.01 | 64 | 1002.9 |
| 20260505031517 | 64 | 259 | 3.0 | 10.0 | 0.00 | 0.01 | 0.01 | 64 | 1003.0 |
| 20260505030015 | 64 | 242 | 6.0 | 13.0 | 0.01 | 0.01 | 0.01 | 62 | 1003.0 |
| 20260505024514 | 62 | 285 | 2.0 | 7.0 | 0.01 | 0.01 | 0.01 | 68 | 1003.4 |
| 20260505023023 | 59 | 318 | 0.0 | 2.0 | 0.01 | 0.01 | 0.01 | 72 | 1003.4 |
| 20260505021516 | 60 | 264 | 0.0 | 3.0 | 0.01 | 0.01 | 0.01 | 69 | 1003.5 |
| 20260505020012 | 57 | 263 | 1.0 | 2.0 | 0.00 | 0.00 | 0.00 | 67 | 1003.9 |
| 20260505014513 | 57 | 263 | 0.0 | 0.0 | 0.00 | 0.00 | 0.00 | 62 | 1003.3 |
| 20260505013007 | 57 | 263 | 0.0 | 2.0 | 0.00 | 0.00 | 0.00 | 59 | 1003.2 |
| 20260505011506 | 57 | 263 | 0.0 | 2.0 | 0.00 | 0.00 | 0.00 | 62 | 1003.4 |
| 20260505010016 | 58 | 263 | 0.0 | 0.0 | 0.00 | 0.00 | 0.00 | 57 | 1003.3 |
| 20260505004521 | 59 | 263 | 0.0 | 0.0 | 0.00 | 0.00 | 0.00 | 56 | 1003.4 |